Regional Weather Roundup
Issued by NWS

Home | Current Version | Previous Version | Text Only | Print | Product List | Glossary Off
Versions: 1 2 3 4 5 6 7 8 9 10 11 12 13 14 15 16 17 18 19 20 21 22 23 24 25 26 27 28 29 30 31 32 33 34 35 36 37 38 39 40 41 42 43 44 45 46 47 48 49

315
ASUS45 KSLC 072010
RWRUT

UTAH REGIONAL WEATHER ROUNDUP
NATIONAL WEATHER SERVICE SALT LAKE CITY UT
100 PM MST SUN FEB 07 2016

UTZ001>011-023>025-072100-

NORTHERN UTAH

CITY           SKY/WX    TMP DP  RH WIND       PRES   REMARKS
BRIGHAM CITY   SUNNY     31  23  72 CALM      30.62F
HILL AFB       SUNNY     35  18  50 W3        30.59S
LOGAN          SUNNY     27  22  81 W5        30.61S HAZE    WCI  22
OGDEN          SUNNY     33  26  75 NW5       30.59F WCI  29
PROVO AIRPORT  MOSUNNY   23  16  74 CALM      30.61F
SALT LAKE CITY MOSUNNY   38  24  57 W3        30.60F HAZE
VERNAL         CLOUDY    23  11  60 NE3       30.54F
WENDOVER       SUNNY     36  25  64 S3        30.59F
HEBER CITY     SUNNY     30  18  59 CALM      30.54F
WEST JORDAN    SUNNY     36  21  55 CALM      30.60S

$$

UTZ012>022-026-027-072100-

SOUTHERN/CENTRAL UTAH

CITY           SKY/WX    TMP DP  RH WIND       PRES   REMARKS
BLANDING       SUNNY     35  25  65 S5        30.48F WCI  31
BRYCE CANYON   SUNNY     39  20  46 N15       30.47F WCI  31
CEDAR CITY     SUNNY     34  19  54 NE6       30.50F WCI  29
DELTA          MOSUNNY   18  17  95 CALM      30.61F
HANKSVILLE     SUNNY     23  23 100 CALM      30.58F
MILFORD        FLURRIES  18  32 100 N7        30.56F WCI   9
MOAB/CYNLANDS  SUNNY     20  17  88 NW10      30.54F WCI   9
PRICE          SUNNY     27  16  63 SE6       30.48F WCI  20
ST GEORGE      CLEAR     52  25  35 CALM      30.45F
KANAB          SUNNY     55  28  35 NE6       30.44F

$$

REGIONAL REPORTS     COLORADO/ARIZONA

CITY           SKY/WX    TMP DP  RH WIND       PRES   REMARKS
CRAIG, CO      CLOUDY    20  12  71 CALM      30.48F
GRAND JUNCTION SUNNY     29  18  63 CALM      30.51F
RIFLE          SUNNY     28  14  55 CALM      30.50F
MONTROSE       SUNNY     32  16  51 CALM      30.50F
CORTEZ         SUNNY     38  23  55 SW8       30.38F WCI  32
PAGE, AZ       SUNNY     40  24  53 N8        30.49F WCI  34
GRAND CANYON   SUNNY     48  15  26 NE13      30.43F
KINGMAN        SUNNY     59  21  23 N6        30.34F
FLAGSTAFF      SUNNY     44  12  27 NE17G28   30.41S

$$

REGIONAL REPORTS    NEVADA/IDAHO/WYOMING

CITY           SKY/WX    TMP DP  RH WIND       PRES   REMARKS
LAS VEGAS, NV  SUNNY     63  19  18 NE3       30.34F
ELY            SUNNY     29  14  53 CALM      30.57F
ELKO           SUNNY     25  14  63 W3        30.63F
POCATELLO, ID  CLOUDY    32  23  69 CALM      30.60F
BURLEY         MOSUNNY   39  30  70 NW5       30.58F
EVANSTON, WY   CLOUDY    32  20  61 SW13      30.53R WCI  22
ROCK SPRINGS   SUNNY     32  21  64 W37G43    30.41F WCI  16

$$




USA.gov is the U.S. government's official web portal to all federal, state and local government web resources and services.